Location: Banios
(43.0451°N, 0.2335°E)
Time: 03:08:58
(UTC+00:00)

Vanguard 2 Rocket - All Passes

Search period start: 12 May 2021 00:00
Search period end: 22 May 2021 00:00
Orbit: 554 x 3326 km, 32.9° (Epoch: 11 May)

Date Brightness Start Highest point End Pass type
(mag) Time Alt. Az. Time Alt. Az. Time Alt. Az.
12 May - 06:04:35 10° S 06:07:47 15° SE 06:11:49 10° ESE daylight
12 May - 08:13:30 10° SW 08:19:44 40° SSE 08:30:14 10° E daylight
12 May - 10:25:01 10° WSW 10:33:34 47° S 10:48:02 10° ESE daylight
12 May - 12:38:12 10° W 12:48:42 34° SSW 13:03:58 10° SSE daylight
12 May - 14:56:16 10° WSW 15:04:11 15° SW 15:13:15 10° S daylight
13 May - 07:15:05 10° SW 07:20:12 31° SSE 07:28:14 10° E daylight
13 May - 09:25:59 10° WSW 09:33:16 46° S 09:45:51 10° ESE daylight
13 May - 11:38:25 10° W 11:47:50 38° SSW 12:02:37 10° SE daylight
13 May - 13:53:51 10° WSW 14:03:12 21° SSW 14:14:57 10° S daylight
14 May - 06:17:05 10° SSW 06:20:59 21° SSE 06:26:24 10° ESE daylight
14 May - 08:27:10 10° WSW 08:33:20 42° S 08:43:46 10° ESE daylight
14 May - 10:39:01 10° WSW 10:47:15 41° S 11:00:52 10° SE daylight
14 May - 12:52:56 10° WSW 13:02:16 25° SSW 13:15:08 10° SSE daylight
15 May - 05:20:08 10° SSE 05:21:59 12° SE 05:24:04 10° ESE daylight
15 May - 07:28:35 10° SW 07:33:44 35° SSE 07:41:58 10° ESE daylight
15 May - 09:39:55 10° WSW 09:46:59 42° S 09:58:58 10° ESE daylight
15 May - 11:52:48 10° WSW 12:01:30 29° SSW 12:14:26 10° SSE daylight
15 May - 14:11:30 10° SW 14:16:41 12° SW 14:22:32 10° SSW daylight
16 May - 06:30:14 10° SW 06:34:24 26° SSE 06:40:27 10° ESE daylight
16 May - 08:41:00 10° WSW 08:47:02 41° S 08:57:09 10° ESE daylight
16 May - 10:53:13 10° WSW 11:00:59 33° SSW 11:13:14 10° SE daylight
16 May - 13:08:42 10° WSW 13:15:52 17° SSW 13:24:53 10° S daylight
17 May - 05:32:17 10° SSW 05:35:18 17° SSE 05:39:04 10° ESE daylight
17 May - 07:42:17 10° WSW 07:47:23 36° S 07:55:33 10° ESE daylight
17 May - 09:53:58 10° WSW 10:00:44 35° S 10:11:47 10° SE daylight
17 May - 12:07:49 10° WSW 12:15:12 21° SSW 12:25:20 10° SSE daylight
18 May - 06:43:44 10° SW 06:47:59 30° SSE 06:54:15 10° ESE daylight
18 May - 08:54:58 10° WSW 09:00:48 36° S 09:10:17 10° SE daylight
18 May - 11:07:48 10° WSW 11:14:45 24° SSW 11:24:54 10° SSE daylight
19 May - 05:45:22 10° SSW 05:48:48 22° SSE 05:53:16 10° ESE daylight
19 May - 07:56:10 10° WSW 08:01:07 34° S 08:08:57 10° ESE daylight
19 May - 10:08:18 10° WSW 10:14:33 27° SSW 10:24:04 10° SE daylight
19 May - 12:24:34 10° SW 12:28:58 13° SSW 12:34:09 10° S daylight
20 May - 04:47:23 10° S 04:49:42 15° SSE 04:52:19 10° ESE daylight
20 May - 06:57:27 10° SW 07:01:41 31° S 07:07:53 10° ESE daylight
20 May - 09:09:09 10° WSW 09:14:36 29° S 09:23:03 10° SE daylight
20 May - 11:23:18 10° WSW 11:28:34 16° SSW 11:35:23 10° S daylight
21 May - 05:58:51 10° SW 06:02:26 25° SSE 06:07:08 10° ESE daylight
21 May - 08:10:11 10° WSW 08:14:54 29° S 08:22:04 10° SE daylight
21 May - 10:23:12 10° WSW 10:28:24 19° SSW 10:35:31 10° SSE daylight
